User: anonymous   Login
Location: Alsip
(41.6689°N, 87.7387°W)
Time: 13:59:45
(UTC+00:00)
Language:

Cosmos 2100 Rocket - Orbit

View from above orbital plane
View from above orbital plane
View from above satellite
View from above satellite

Ground track
Ground track

The orbit data is extracted from the following two-line orbital elements,

1 20805U 90083B   21016.86448670  .00000105  00000-0  92444-4 0  9991
2 20805  82.9372 168.5460 0030029 337.2443 129.5096 13.75913516523225
Epoch (UTC): 16 January 2021 20:44:51
Eccentricity: 0.0030029
inclination: 82.9372°
perigee height: 956 km
apogee height: 1000 km
right ascension of ascending node: 168.5460°
argument of perigee: 337.2443°
revolutions per day: 13.75913516
mean anomaly at epoch: 129.5096°
orbit number at epoch: 52322

The dashed part of the orbit path shows where the satellite is in the earth's shadow,  

DLR